Terminal Aerodrome Forecast
Issued by NWS

Home | Current Version | Previous Version | Text Only | Print | Product List | Glossary On
Versions: 1 2 3 4 5 6 7 8 9 10 11 12 13 14 15 16 17 18
000
FTUS41 KCAR 040040 AAA
TAFBHB
TAF AMD
KBHB 040040Z 0401/0424 21010KT P6SM OVC006
     FM040200 19009KT P6SM OVC003
     FM040600 20006KT 1SM BR BKN001
     FM041300 17005KT P6SM SCT003 BKN060
      AMD LTD TO CLD VIS AND WIND=

USA.gov is the U.S. government's official web portal to all federal, state and local government web resources and services.